Tracking 34747 objects as of 16-Jul-2026
HD Live streaming from Space Station
objects crossing your sky now

GOES 1 AKM

Track GOES 1 AKM now!


NORAD ID: 20962
Int'l Code: 1975-100F
Perigee: 34,217.5 km
Apogee: 36,452.0 km
Inclination: 2.2 °
Period: 1,412.7 minutes
Semi major axis: 41705 km
RCS: 0.3981 m2 (medium)
Launch date: October 16, 1975
Source: United States (US)
Launch site: AIR FORCE EASTERN TEST RANGE (AFETR)

Note: This is a ROCKET BODY
Your satellite tracking list
Your tracking list is empty




NASA's NSSDC Master Catalog

Two Line Element Set (TLE):
1 20962U 75100F   26196.99981858 -.00000159  00000-0  00000-0 0  9999
2 20962   2.2415 250.8655 0267886  96.3550 267.0031  1.01931520136440
Source of the keplerian elements: AFSPC